Weather in Uspenskiye Khutora

Russia / Kaluga Oblast     55°09′37″N   36°53′34″E
temp.,
°C
wind,
m/s
gust,
m/s
humid.,
%
clouds,
%
prec.,
mm/h
press.,
hPa
HPBL,
m
16 january, sun
sun1600:00−5nw51388100 0.1 1004886
03:00−5nw51388100 0.1 1006837
06:00−4nw4129398 0.1 1006704
09:00−4nw4991100 0.1 1009782
12:00−4wnw3792100 0.1 1010820
15:00−5w379396 0.2 1011421
18:00−8wsw3119679 0.0 1010315
21:00−9sw4119679 0.1 1009283
17 january, mon
mon1700:00−8sw5159593 0.0 1006392
03:00−6sw5169399 0.0 1001567
06:00−5sw61688100 0.0 996658
09:00−5sw61595100 1.3 992817
12:00−3ssw61592100 0.8 989821
15:00−2ssw61392100 1.1 986823
18:00−1ssw51396100 0.6 985819
21:00−1ssw41297100 1.6 985811
18 january, tue
tue1800:00−1wsw4897100 0.6 986548
03:00−8wsw2498100 0.6 98961
06:00−8w2697100 0.0 992121
09:00−9nw2797100 0.0 995134
12:00−6n61393100 0.4 999646
15:00−7n61592100 1.2 1003742
18:00−8n61588100 0.4 1007732
21:00−10n61590100 0.4 1011642
19 january, wed
wed1900:00−11nnw51491100 0.0 1014518
03:00−12nnw4129398 0.1 1016387
06:00−14nnw3109691 0.0 1017267
09:00−18nw2310072 0.0 101942
12:00−12nnw259270 0.0 1018196
15:00−10wnw129326 0.0 1018163
18:00−19wsw1110071 0.0 10199
21:00−21ssw2210095 0.0 101923
20 january, thu
thu2000:00−19ssw2610096 0.0 101884
03:00−16s31094100 0.0 1017171
06:00−13s41292100 0.1 1016300
09:00−11s41392100 0.3 1015360
12:00−9s51494100 0.4 1015434
15:00−8s51591100 0.7 1013514
18:00−9s51584100 0.1 1013511
21:00−9s51684100 0.1 1012554